SCP
0 0 0 0 0 -0 -0 0 0 0 0 0 0 0 0 0 0 0 0 0 0 0 0 0 0 0 0 0 0 0 0 0 0 0 0 0 0 0 0 0 0 0 0 0
0 0 0 0 0 0 0 0 0 0 0 0 0 0 0 0 0 0 0 0 0 0 0 0 0 0 0 0 0 0 0 0 0 0 0 0 0 0 0 0 0 0 0 0
0 0 0 0 0 0 0 0 0 0 0 0 0 0 0 0 0 0 0 0 0 0 0 0 0 0 0 0 0 0 0 0 0 0 0 0 0 0 0 0 0 0 0 0
0 0 0 0 0 0 0 0 0 0 0 0 0 0 0 0 0 -0 0 -0 -0 0 0 0 0 0 0 0 0 0 0 0 0 0 0 0 0 0 0 0 0 0 0 0
-0 0 0 0 0 0 0 0 0 0 0 0 0 0 0 0 0 0 0 0 0 0 0 -0 0 0 -0 0 0 0 0 0 0 0 0 0 0 0 0 0 0 0 0 0
-0 -0 0 0 0 0 0 0 0 0 0 0 -0 -0 0 0 0 0 0 0 0 0 0 0 0 0 0 0 0 0 0 0 0 0 0 0 0 0 0 0 0 0 0 0
-0 -0 -0 0 -0 -0 -0 -0 0 -0 -0 -0 -0 -0 -0 -0 -0 -0 -0 0 0 0 0 0 0 0 0 0 0 0 0 0 0 0 0 0 0 0 0 0 0 0 0 0
-0 -0 0 -0 -0 -0 -0 -0 -0 -0 -0 0 -0 -0 -0 0 0 0 0 0 0 0 -0 0 0 0 0 0 0 0 0 0 0 0 0 0 0 0 0 0 0 0 0 0
-0 0 -0 -0 -0 -0 -0 -0 -0 -0 -0 0 -0 -0 -0 0 0 0 0 0 0 -0 -0 0 0 0 0 0 0 0 0 0 0 0 0 0 0 0 0 0 0 0 0 0
-0 -0 -0 -0 -0 -0 -0 -0 -0 -0 -0 -0 0 0 0 0 -0 -0 -0 -0 0 0 0 0 0 0 0 0 0 0 0 0 0 0 0 0 0 0 0 0 0 0 0 0
0 -0 -0 -0 -0 -0 -0 -0 -0 -0 -0 -0 -0 -0 -0 -0 0 0 0 0 0 0 0 0 0 0 0 0 0 0 0 0 0 0 0 0 0 0 0 0 0 0 0 0
0 0 0 -0 -0 -0 -0 -0 -0 -0 -0 -0 -0 -0 -0 -0 -0 -0 0 -0 0 0 0 0 0 0 0 0 0 0 0 0 0 0 0 0 0 0 0 0 0 0 0 0
-0 -0 0 0 -0 -0 -0 -0 -0 0 0 0 0 0 0 0 0 0 0 0 0 0 0 0 0 0 0 0 0 0 0 0 0 0 0 0 0 0 0 0 0 0 0 0
0 -0 -0 0 0 0 0 0 0 0 0 0 0 0 0 0 0 0 0 0 0 0 0 0 0 0 0 0 0 0 0 0 0 0 0 0 0 0 0 0 0 0 0 0
0 -0 -0 -0 0 0 0 0 -0 0 0 0 0 0 0 0 0 0 0 -0 0 0 0 0 0 0 0 0 0 0 0 0 0 0 0 0 0 0 0 0 0 0 0 0
-0 0 0 -0 -0 0 0 0 0 0 0 0 0 0 0 0 0 0 0 0 0 0 0 0 0 0 0 0 0 0 0 0 0 0 0 0 0 0 0 0 0 0 0 0
-0 0 0 0 -0 -0 0 0 0 0 0 0 0 0 0 0 0 0 0 0 0 0 0 0 0 0 0 0 0 0 0 0 0 0 0 0 0 0 0 0 0 0 0 0
0 0 0 0 -0 -0 -0 -0 -0 0 0 0 0 0 0 0 0 0 0 0 0 0 0 0 0 0 0 0 0 0 0 0 0 0 0 0 0 0 0 0 0 0 0 0
0 -0 0 0 0 -0 0 0 0 0 0 0 0 0 0 0 0 0 0 0 0 0 0 0 0 0 0 0 0 0 0 0 0 0 0 0 0 0 0 0 0 0 0 0
0 0 0 0 0 0 -0 0 0 0 0 0 0 0 0 0 0 0 0 0 0 0 0 0 0 0 0 0 0 0 0 0 0 0 0 0 0 0 0 0 0 0 0 0
0 0 0 0 0 0 0 0 0 0 0 0 0 0 0 0 0 0 0 0 0 0 0 0 0 0 0 0 0 0 0 0 0 0 0 0 0 0 0 0 0 0 0 0
0 0 0 0 0 0 0 0 0 0 0 0 0 0 0 0 0 0 0 0 0 0 0 0 0 0 0 0 0 0 0 0 0 0 0 0 0 0 0 0 0 0 0 0
0 0 0 0 0 0 0 0 0 0 0 0 0 0 0 0 0 0 0 0 0 0 0 0 0 0 0 0 0 0 0 0 0 0 0 0 0 0 0 0 0 0 0 0
0 0 0 0 0 0 0 0 0 0 0 0 0 0 0 0 0 0 0 0 0 0 0 0 0 0 0 0 0 0 0 0 0 0 0 0 0 0 0 0 0 0 0 0
0 0 0 0 0 0 0 0 0 0 0 0 0 0 0 0 0 0 0 0 0 0 0 0 0 0 0 0 0 0 0 0 0 0 0 0 0 0 0 0 0 0 0 0
0 0 0 0 0 0 0 0 0 0 0 0 0 0 0 0 0 0 0 0 0 0 0 0 0 0 0 0 0 0 0 0 0 0 0 0 0 0 0 0 0 0 0 0
0 0 0 0 0 0 0 0 0 0 0 0 0 0 0 0 0 0 0 0 0 0 0 0 0 0 0 0 0 0 0 0 0 0 0 0 0 0 0 0 0 0 0 0
Wind_Speed_500mb
10 27 38 46 47 49 47 29 20 22 33 29 27 26 35 44 50 53 58 57 58 56 54 54 51 46 40 35 30 25 22 26 30 31 29 28 29 26 27 24 22 19 19 18
3 15 19 43 48 41 41 26 26 24 32 24 38 46 49 45 41 43 52 53 56 57 54 54 53 50 45 43 39 29 26 28 28 27 28 30 31 28 25 25 25 24 22 21
5 16 16 23 31 32 24 31 17 26 15 20 31 39 42 36 42 41 44 48 56 57 54 55 52 48 47 45 42 37 38 36 33 28 26 27 28 28 28 27 27 26 27 23
6 9 14 7 17 10 14 35 32 20 18 20 29 44 53 50 44 43 46 51 54 52 52 51 47 47 44 42 40 37 39 38 37 31 33 34 30 29 27 29 32 32 31 27
6 6 1 4 11 12 14 23 29 25 24 23 11 30 49 46 44 44 46 48 50 48 46 44 45 42 39 41 38 36 37 35 32 29 30 31 30 29 27 22 24 24 25 24
4 9 11 5 4 11 8 18 38 31 19 19 13 19 11 31 39 40 43 44 43 43 42 43 43 38 37 38 35 37 34 32 29 28 26 25 26 25 25 22 23 24 21 20
5 5 7 6 28 1 6 6 23 23 25 30 15 16 19 26 36 37 40 40 38 38 41 42 40 34 37 34 36 35 31 28 26 24 23 22 22 21 19 17 16 18 16 14
2 5 7 22 10 7 2 6 9 21 26 34 33 31 31 34 37 35 37 36 37 36 38 37 37 34 33 31 32 28 25 23 21 20 18 17 16 16 15 13 10 10 9 9
3 4 6 14 11 9 8 10 12 20 24 30 34 33 31 33 34 35 35 35 34 34 33 32 31 29 25 26 25 23 21 19 17 16 13 13 13 12 10 8 8 8 8 6
2 5 5 0 5 8 15 21 23 21 24 26 30 29 30 31 32 33 34 34 35 33 33 32 29 25 21 18 15 14 14 14 13 12 12 11 10 8 6 4 5 5 5 5
6 7 5 10 12 15 21 22 19 22 23 23 23 26 24 24 24 24 25 25 25 24 24 22 21 19 18 17 15 13 12 12 14 15 16 16 14 13 11 9 9 8 7 8
4 11 4 14 25 22 22 20 19 18 17 17 18 16 19 18 17 16 15 16 16 17 18 19 19 19 18 16 14 14 16 16 15 16 17 18 19 20 21 22 20 18 19 17
6 17 7 21 28 22 20 16 14 14 13 13 15 13 8 7 8 7 8 11 15 18 20 18 18 19 20 20 21 21 21 24 27 28 28 28 27 25 24 24 24 25 27 29
15 17 13 20 15 19 14 12 10 9 10 11 11 10 7 3 2 2 6 10 14 16 14 17 19 22 23 24 25 25 25 26 28 28 30 30 31 30 28 28 28 28 29 31
26 18 17 18 21 20 16 12 8 5 4 5 8 10 8 6 4 6 9 14 12 9 13 16 20 25 28 29 30 29 27 27 26 27 28 28 29 30 29 29 28 28 27 32
35 26 20 23 22 19 16 11 11 8 7 7 6 4 3 1 2 6 9 8 4 7 11 18 26 31 32 33 35 35 32 26 23 23 24 24 25 25 26 26 26 26 28 29
44 40 35 31 28 22 18 16 13 7 6 6 2 2 3 4 5 9 6 6 12 17 24 31 37 40 40 39 36 31 27 24 22 19 18 18 19 20 21 22 23 25 26 27
34 30 34 30 31 28 26 22 16 10 12 11 6 2 3 6 6 7 10 16 22 29 34 40 43 45 44 39 33 26 20 16 16 15 15 15 15 15 16 17 18 19 21 23
33 29 30 29 28 31 31 29 24 22 19 9 3 3 4 4 7 11 17 23 29 33 36 37 38 36 33 29 23 19 14 11 12 12 12 13 13 13 13 13 14 16 18 20
36 37 33 28 25 27 34 34 29 25 16 7 3 2 3 8 15 20 24 27 28 27 27 26 24 23 22 20 16 14 12 10 10 10 10 11 11 12 12 13 13 14 15 17
40 35 27 23 30 36 36 33 24 15 8 3 2 6 11 16 20 22 23 24 26 24 22 20 19 17 16 15 13 11 10 9 9 9 9 9 10 11 11 12 13 14 15 17
48 36 28 28 35 35 31 23 15 11 7 3 4 10 15 17 18 18 17 16 17 19 20 20 19 18 15 14 13 13 12 12 12 13 13 13 14 14 15 16 17 17 17 17
50 40 36 34 34 27 19 17 14 10 5 5 9 13 16 17 17 14 14 13 13 14 13 12 11 10 11 13 13 14 15 15 16 17 18 19 19 19 19 19 18 18 18 17
52 57 48 43 37 28 26 22 15 8 5 9 13 15 15 15 14 12 10 9 8 7 8 8 9 12 15 16 18 19 20 21 21 21 21 21 20 20 20 20 19 20 21 21
60 58 49 43 35 32 27 19 13 8 9 14 17 17 16 14 10 8 5 3 5 8 9 12 17 20 19 20 20 20 20 21 21 21 20 19 19 19 20 21 22 22 24 25
59 54 47 39 35 29 22 13 7 11 15 15 14 14 13 9 5 1 2 6 10 13 14 17 19 19 18 18 17 17 17 17 16 16 16 17 18 19 20 22 23 25 26 27
57 52 50 45 37 28 17 11 11 13 15 15 15 11 9 6 5 7 10 13 16 18 18 17 17 15 14 13 13 13 12 13 14 15 17 18 20 22 24 26 28 30 33 35
Wind_Direction_500mb
63 41 34 32 24 28 44 35 53 46 51 27 31 43 48 62 67 71 79 83 86 87 88 91 97 99 101 100 102 102 98 99 98 98 96 97 101 103 101 110 119 115 112 124
237 341 28 33 20 27 33 25 48 51 52 18 35 45 46 51 61 64 71 75 80 84 87 88 90 92 95 93 90 94 95 94 91 92 99 102 97 96 103 106 107 110 114 123
15 354 339 30 359 359 23 25 18 41 33 30 42 41 30 44 56 61 69 73 76 78 83 85 86 91 92 95 96 100 97 94 87 85 94 93 89 86 92 100 103 111 115 116
329 325 32 45 351 336 9 31 12 28 34 53 63 55 44 50 56 56 62 69 75 77 80 82 85 87 88 90 93 93 94 95 95 97 93 91 95 98 98 100 106 108 110 111
54 34 122 72 20 6 357 29 18 7 7 8 66 53 37 43 56 63 67 71 73 76 79 81 82 85 88 88 88 86 84 83 83 84 90 95 100 103 104 102 102 106 110 113
27 60 21 34 349 332 299 38 6 10 30 31 355 73 40 47 62 66 69 72 74 75 78 80 79 79 82 83 84 84 83 82 82 83 84 87 87 90 92 96 99 101 103 106
56 75 289 329 323 287 63 7 355 28 52 77 78 82 88 81 81 78 78 76 75 76 76 76 77 76 78 80 80 77 77 76 75 76 77 81 86 91 87 84 87 96 100 103
170 68 2 0 314 68 56 13 68 78 79 89 95 98 94 86 82 80 80 81 81 80 78 75 73 71 72 72 72 73 72 70 71 72 72 73 74 77 80 77 77 77 83 93
222 101 315 349 36 69 99 100 89 92 93 96 99 96 93 89 88 86 83 80 79 75 74 73 70 67 62 61 58 58 57 54 54 54 52 51 50 54 58 58 55 54 51 40
288 181 217 50 74 81 113 122 121 115 111 107 101 91 84 77 75 74 72 70 67 64 62 61 59 56 52 48 41 31 26 18 19 21 18 24 26 25 35 48 40 30 0 336
269 256 225 203 163 131 128 125 124 127 126 121 117 109 97 93 88 81 73 67 61 53 48 43 36 29 24 18 13 5 357 345 332 321 317 317 320 319 320 318 323 322 310 309
201 177 138 158 164 155 151 145 137 143 137 130 128 112 100 90 81 71 62 55 43 29 17 4 354 347 341 333 323 319 316 312 304 300 298 302 302 297 290 288 286 279 278 269
149 158 145 156 169 163 160 160 157 153 162 160 161 154 122 75 63 47 36 16 1 358 354 355 358 357 347 335 322 310 296 287 287 288 289 289 288 286 283 279 272 266 263 268
163 143 124 148 166 164 168 169 166 177 188 195 205 209 223 257 304 309 332 337 346 1 24 24 16 8 1 355 348 339 322 300 285 282 281 281 280 279 279 278 279 280 276 275
182 173 163 163 159 157 150 140 132 127 133 159 193 211 222 230 245 298 326 339 352 21 14 7 355 349 341 336 335 332 327 320 311 299 287 282 279 277 276 275 276 276 277 280
186 186 178 179 174 174 173 169 168 150 142 135 115 125 168 218 300 312 318 324 341 321 311 320 324 325 325 323 322 319 318 317 315 310 305 300 295 290 286 284 281 281 281 279
185 191 187 187 190 193 198 195 188 181 167 161 170 249 270 277 293 299 302 307 309 307 307 311 315 317 318 318 317 316 314 312 311 310 305 303 301 300 299 296 295 296 296 295
201 210 209 212 210 204 199 192 187 184 167 159 154 182 233 279 291 293 291 298 304 307 311 314 317 319 321 322 324 322 317 317 318 318 317 315 310 306 304 303 302 301 302 306
177 184 181 179 183 188 189 186 181 175 168 173 229 220 211 234 266 286 297 305 309 311 313 314 317 322 322 323 330 338 336 327 323 326 330 333 334 331 327 324 323 321 319 318
177 170 167 170 175 180 180 173 169 170 180 204 203 169 277 302 307 309 311 311 312 315 320 324 331 339 343 341 338 337 340 342 340 339 339 343 344 343 340 336 331 327 324 322
179 171 164 165 162 157 160 163 166 177 200 198 279 317 321 317 315 315 315 317 322 326 331 335 335 340 350 2 7 6 4 4 4 3 4 360 358 354 349 345 343 341 339 338
178 172 172 167 164 158 158 163 171 169 171 197 295 316 317 316 316 316 319 324 332 332 336 341 346 347 350 359 8 16 20 24 25 28 25 24 19 16 12 9 5 3 2 2
186 187 178 168 162 162 167 167 165 169 198 276 305 310 315 320 322 323 324 327 335 341 349 356 1 11 22 28 33 38 39 41 44 46 46 46 44 42 38 35 29 22 16 7
184 178 175 174 172 175 173 170 177 195 256 295 305 314 317 317 316 315 320 329 346 4 23 34 56 68 67 65 66 67 68 67 65 60 55 48 40 33 25 18 10 3 357 351
171 174 177 177 178 174 175 185 200 236 290 306 311 309 305 301 290 298 308 355 48 68 74 89 92 87 83 78 73 67 59 52 46 39 33 27 22 17 11 5 360 355 351 347
171 174 175 176 175 179 186 199 245 288 297 298 298 297 293 286 280 293 108 120 117 115 113 105 98 89 79 71 63 56 50 45 42 36 29 22 16 10 4 358 353 348 345 342
171 175 176 176 179 185 194 221 263 283 289 288 289 285 269 249 213 177 153 138 130 124 114 105 97 90 81 72 66 57 47 37 29 20 14 9 4 359 355 352 349 346 343 341
Wind_Speed_850mb
10 27 38 46 47 49 47 29 20 22 33 29 27 26 35 44 50 53 58 57 58 56 54 54 51 46 40 35 30 25 22 26 30 31 29 28 29 26 27 24 22 19 19 18
3 15 19 43 48 41 41 26 26 24 32 24 38 46 49 45 41 43 52 53 56 57 54 54 53 50 45 43 39 29 26 28 28 27 28 30 31 28 25 25 25 24 22 21
5 16 16 23 31 32 24 31 17 26 15 20 31 39 42 36 42 41 44 48 56 57 54 55 52 48 47 45 42 37 38 36 33 28 26 27 28 28 28 27 27 26 27 23
6 9 14 7 17 10 14 35 32 20 18 20 29 44 53 50 44 43 46 51 54 52 52 51 47 47 44 42 40 37 39 38 37 31 33 34 30 29 27 29 32 32 31 27
6 6 1 4 11 12 14 23 29 25 24 23 11 30 49 46 44 44 46 48 50 48 46 44 45 42 39 41 38 36 37 35 32 29 30 31 30 29 27 22 24 24 25 24
4 9 11 5 4 11 8 18 38 31 19 19 13 19 11 31 39 40 43 44 43 43 42 43 43 38 37 38 35 37 34 32 29 28 26 25 26 25 25 22 23 24 21 20
5 5 7 6 28 1 6 6 23 23 25 30 15 16 19 26 36 37 40 40 38 38 41 42 40 34 37 34 36 35 31 28 26 24 23 22 22 21 19 17 16 18 16 14
2 5 7 22 10 7 2 6 9 21 26 34 33 31 31 34 37 35 37 36 37 36 38 37 37 34 33 31 32 28 25 23 21 20 18 17 16 16 15 13 10 10 9 9
3 4 6 14 11 9 8 10 12 20 24 30 34 33 31 33 34 35 35 35 34 34 33 32 31 29 25 26 25 23 21 19 17 16 13 13 13 12 10 8 8 8 8 6
2 5 5 0 5 8 15 21 23 21 24 26 30 29 30 31 32 33 34 34 35 33 33 32 29 25 21 18 15 14 14 14 13 12 12 11 10 8 6 4 5 5 5 5
6 7 5 10 12 15 21 22 19 22 23 23 23 26 24 24 24 24 25 25 25 24 24 22 21 19 18 17 15 13 12 12 14 15 16 16 14 13 11 9 9 8 7 8
4 11 4 14 25 22 22 20 19 18 17 17 18 16 19 18 17 16 15 16 16 17 18 19 19 19 18 16 14 14 16 16 15 16 17 18 19 20 21 22 20 18 19 17
6 17 7 21 28 22 20 16 14 14 13 13 15 13 8 7 8 7 8 11 15 18 20 18 18 19 20 20 21 21 21 24 27 28 28 28 27 25 24 24 24 25 27 29
15 17 13 20 15 19 14 12 10 9 10 11 11 10 7 3 2 2 6 10 14 16 14 17 19 22 23 24 25 25 25 26 28 28 30 30 31 30 28 28 28 28 29 31
26 18 17 18 21 20 16 12 8 5 4 5 8 10 8 6 4 6 9 14 12 9 13 16 20 25 28 29 30 29 27 27 26 27 28 28 29 30 29 29 28 28 27 32
35 26 20 23 22 19 16 11 11 8 7 7 6 4 3 1 2 6 9 8 4 7 11 18 26 31 32 33 35 35 32 26 23 23 24 24 25 25 26 26 26 26 28 29
44 40 35 31 28 22 18 16 13 7 6 6 2 2 3 4 5 9 6 6 12 17 24 31 37 40 40 39 36 31 27 24 22 19 18 18 19 20 21 22 23 25 26 27
34 30 34 30 31 28 26 22 16 10 12 11 6 2 3 6 6 7 10 16 22 29 34 40 43 45 44 39 33 26 20 16 16 15 15 15 15 15 16 17 18 19 21 23
33 29 30 29 28 31 31 29 24 22 19 9 3 3 4 4 7 11 17 23 29 33 36 37 38 36 33 29 23 19 14 11 12 12 12 13 13 13 13 13 14 16 18 20
36 37 33 28 25 27 34 34 29 25 16 7 3 2 3 8 15 20 24 27 28 27 27 26 24 23 22 20 16 14 12 10 10 10 10 11 11 12 12 13 13 14 15 17
40 35 27 23 30 36 36 33 24 15 8 3 2 6 11 16 20 22 23 24 26 24 22 20 19 17 16 15 13 11 10 9 9 9 9 9 10 11 11 12 13 14 15 17
48 36 28 28 35 35 31 23 15 11 7 3 4 10 15 17 18 18 17 16 17 19 20 20 19 18 15 14 13 13 12 12 12 13 13 13 14 14 15 16 17 17 17 17
50 40 36 34 34 27 19 17 14 10 5 5 9 13 16 17 17 14 14 13 13 14 13 12 11 10 11 13 13 14 15 15 16 17 18 19 19 19 19 19 18 18 18 17
52 57 48 43 37 28 26 22 15 8 5 9 13 15 15 15 14 12 10 9 8 7 8 8 9 12 15 16 18 19 20 21 21 21 21 21 20 20 20 20 19 20 21 21
60 58 49 43 35 32 27 19 13 8 9 14 17 17 16 14 10 8 5 3 5 8 9 12 17 20 19 20 20 20 20 21 21 21 20 19 19 19 20 21 22 22 24 25
59 54 47 39 35 29 22 13 7 11 15 15 14 14 13 9 5 1 2 6 10 13 14 17 19 19 18 18 17 17 17 17 16 16 16 17 18 19 20 22 23 25 26 27
57 52 50 45 37 28 17 11 11 13 15 15 15 11 9 6 5 7 10 13 16 18 18 17 17 15 14 13 13 13 12 13 14 15 17 18 20 22 24 26 28 30 33 35
Wind_Direction_850mb
63 41 34 32 24 28 44 35 53 46 51 27 31 43 48 62 67 71 79 83 86 87 88 91 97 99 101 100 102 102 98 99 98 98 96 97 101 103 101 110 119 115 112 124
237 341 28 33 20 27 33 25 48 51 52 18 35 45 46 51 61 64 71 75 80 84 87 88 90 92 95 93 90 94 95 94 91 92 99 102 97 96 103 106 107 110 114 123
15 354 339 30 359 359 23 25 18 41 33 30 42 41 30 44 56 61 69 73 76 78 83 85 86 91 92 95 96 100 97 94 87 85 94 93 89 86 92 100 103 111 115 116
329 325 32 45 351 336 9 31 12 28 34 53 63 55 44 50 56 56 62 69 75 77 80 82 85 87 88 90 93 93 94 95 95 97 93 91 95 98 98 100 106 108 110 111
54 34 122 72 20 6 357 29 18 7 7 8 66 53 37 43 56 63 67 71 73 76 79 81 82 85 88 88 88 86 84 83 83 84 90 95 100 103 104 102 102 106 110 113
27 60 21 34 349 332 299 38 6 10 30 31 355 73 40 47 62 66 69 72 74 75 78 80 79 79 82 83 84 84 83 82 82 83 84 87 87 90 92 96 99 101 103 106
56 75 289 329 323 287 63 7 355 28 52 77 78 82 88 81 81 78 78 76 75 76 76 76 77 76 78 80 80 77 77 76 75 76 77 81 86 91 87 84 87 96 100 103
170 68 2 0 314 68 56 13 68 78 79 89 95 98 94 86 82 80 80 81 81 80 78 75 73 71 72 72 72 73 72 70 71 72 72 73 74 77 80 77 77 77 83 93
222 101 315 349 36 69 99 100 89 92 93 96 99 96 93 89 88 86 83 80 79 75 74 73 70 67 62 61 58 58 57 54 54 54 52 51 50 54 58 58 55 54 51 40
288 181 217 50 74 81 113 122 121 115 111 107 101 91 84 77 75 74 72 70 67 64 62 61 59 56 52 48 41 31 26 18 19 21 18 24 26 25 35 48 40 30 0 336
269 256 225 203 163 131 128 125 124 127 126 121 117 109 97 93 88 81 73 67 61 53 48 43 36 29 24 18 13 5 357 345 332 321 317 317 320 319 320 318 323 322 310 309
201 177 138 158 164 155 151 145 137 143 137 130 128 112 100 90 81 71 62 55 43 29 17 4 354 347 341 333 323 319 316 312 304 300 298 302 302 297 290 288 286 279 278 269
149 158 145 156 169 163 160 160 157 153 162 160 161 154 122 75 63 47 36 16 1 358 354 355 358 357 347 335 322 310 296 287 287 288 289 289 288 286 283 279 272 266 263 268
163 143 124 148 166 164 168 169 166 177 188 195 205 209 223 257 304 309 332 337 346 1 24 24 16 8 1 355 348 339 322 300 285 282 281 281 280 279 279 278 279 280 276 275
182 173 163 163 159 157 150 140 132 127 133 159 193 211 222 230 245 298 326 339 352 21 14 7 355 349 341 336 335 332 327 320 311 299 287 282 279 277 276 275 276 276 277 280
186 186 178 179 174 174 173 169 168 150 142 135 115 125 168 218 300 312 318 324 341 321 311 320 324 325 325 323 322 319 318 317 315 310 305 300 295 290 286 284 281 281 281 279
185 191 187 187 190 193 198 195 188 181 167 161 170 249 270 277 293 299 302 307 309 307 307 311 315 317 318 318 317 316 314 312 311 310 305 303 301 300 299 296 295 296 296 295
201 210 209 212 210 204 199 192 187 184 167 159 154 182 233 279 291 293 291 298 304 307 311 314 317 319 321 322 324 322 317 317 318 318 317 315 310 306 304 303 302 301 302 306
177 184 181 179 183 188 189 186 181 175 168 173 229 220 211 234 266 286 297 305 309 311 313 314 317 322 322 323 330 338 336 327 323 326 330 333 334 331 327 324 323 321 319 318
177 170 167 170 175 180 180 173 169 170 180 204 203 169 277 302 307 309 311 311 312 315 320 324 331 339 343 341 338 337 340 342 340 339 339 343 344 343 340 336 331 327 324 322
179 171 164 165 162 157 160 163 166 177 200 198 279 317 321 317 315 315 315 317 322 326 331 335 335 340 350 2 7 6 4 4 4 3 4 360 358 354 349 345 343 341 339 338
178 172 172 167 164 158 158 163 171 169 171 197 295 316 317 316 316 316 319 324 332 332 336 341 346 347 350 359 8 16 20 24 25 28 25 24 19 16 12 9 5 3 2 2
186 187 178 168 162 162 167 167 165 169 198 276 305 310 315 320 322 323 324 327 335 341 349 356 1 11 22 28 33 38 39 41 44 46 46 46 44 42 38 35 29 22 16 7
184 178 175 174 172 175 173 170 177 195 256 295 305 314 317 317 316 315 320 329 346 4 23 34 56 68 67 65 66 67 68 67 65 60 55 48 40 33 25 18 10 3 357 351
171 174 177 177 178 174 175 185 200 236 290 306 311 309 305 301 290 298 308 355 48 68 74 89 92 87 83 78 73 67 59 52 46 39 33 27 22 17 11 5 360 355 351 347
171 174 175 176 175 179 186 199 245 288 297 298 298 297 293 286 280 293 108 120 117 115 113 105 98 89 79 71 63 56 50 45 42 36 29 22 16 10 4 358 353 348 345 342
171 175 176 176 179 185 194 221 263 283 289 288 289 285 269 249 213 177 153 138 130 124 114 105 97 90 81 72 66 57 47 37 29 20 14 9 4 359 355 352 349 346 343 341